Dewpoint
40 38 38 39 38 38 38 38 37 31 30 32 34 35 37 38 40 41 38 38 41 43 44 46 48 49 52 53 52 53 53 54 55 54 54 53 52 51
37 36 37 37 35 36 36 35 35 34 31 32 33 34 35 35 36 37 38 39 40 40 41 42 45 48 48 49 51 53 53 53 53 54 53 53 52 51
35 34 34 35 34 34 34 34 34 34 33 33 34 35 35 35 36 37 38 38 39 40 41 41 44 47 46 47 47 50 52 53 53 53 53 52 51 50
34 33 33 33 33 34 35 34 35 35 34 32 33 34 35 36 36 36 36 38 40 41 41 40 40 46 45 47 47 47 49 52 52 51 51 51 51 50
33 32 32 33 33 34 34 34 35 34 33 32 31 33 35 36 36 36 36 37 39 38 38 39 40 44 46 46 46 47 48 50 51 51 51 50 50 50
33 32 33 34 34 34 35 34 33 32 32 31 31 31 33 34 36 35 34 37 37 38 39 39 41 45 46 45 46 47 48 49 48 48 48 48 48 48
32 33 33 34 35 35 35 33 33 31 31 30 29 30 30 31 31 34 34 36 37 37 37 37 39 44 45 45 46 47 47 48 48 48 47 46 46 45
32 33 33 34 34 34 33 32 33 31 30 30 30 29 30 31 32 33 33 33 32 36 35 33 35 39 42 44 45 45 45 45 46 45 44 43 43 42
32 33 32 32 32 31 31 31 32 33 33 32 30 30 30 32 32 32 33 34 33 32 33 30 33 34 38 43 45 45 44 43 42 41 41 40 39 39
32 32 32 32 32 32 32 31 32 33 33 33 33 33 35 34 34 34 35 32 32 32 32 28 31 30 34 38 43 42 41 40 39 38 37 37 36 36
31 32 32 31 32 32 31 31 30 32 34 34 35 35 36 36 36 35 33 32 29 29 31 29 30 29 30 31 36 38 37 37 36 36 35 34 33 33
31 32 32 32 33 32 30 30 28 30 31 32 33 33 33 34 37 36 34 32 29 29 30 28 30 29 26 29 31 33 34 35 34 34 33 33 32 30
31 31 32 32 32 30 30 29 29 31 31 31 32 32 32 32 32 33 33 32 30 28 31 31 28 27 26 25 28 31 31 31 31 31 32 31 30 28
31 31 31 31 30 29 30 30 30 30 31 30 30 29 29 29 30 31 31 32 32 31 32 31 28 27 25 24 23 27 29 30 29 28 29 30 29 26
31 31 30 30 30 29 30 29 30 30 29 29 28 29 29 30 31 31 31 32 31 31 31 31 30 29 28 24 22 24 23 24 26 25 25 25 25 25
30 30 28 29 29 29 28 29 29 30 30 29 29 29 29 29 29 30 29 28 27 27 30 31 31 28 26 24 23 22 22 21 24 24 24 24 24 24
30 29 28 28 28 29 29 29 29 28 29 28 27 27 27 27 28 29 29 27 26 25 26 28 30 30 28 26 23 23 22 22 24 24 23 22 23 23
29 27 26 27 28 29 29 29 28 28 27 28 27 27 27 27 27 28 28 27 26 26 25 27 26 25 25 27 27 22 22 22 24 25 25 22 22 25
27 26 26 27 28 28 29 29 28 29 28 28 27 27 27 27 26 27 27 27 26 26 26 27 26 24 21 19 24 27 22 23 23 23 24 23 22 24
29 27 27 27 27 26 27 29 30 28 28 28 27 28 27 27 26 26 27 26 26 26 26 27 26 25 22 21 22 24 26 23 22 22 23 25 26 26
28 28 27 27 27 27 27 27 28 29 29 28 28 28 27 26 26 27 27 27 27 27 25 25 27 28 28 26 22 22 26 27 25 24 24 22 20 21
28 28 28 27 26 26 26 26 26 26 27 27 28 28 27 27 26 26 26 26 26 26 25 27 29 28 26 22 21 22 24 27 28 28 27 24 20 17
27 27 28 26 26 27 26 26 26 26 25 25 26 27 26 26 26 26 26 26 26 26 26 25 26 26 24 22 21 20 21 21 22 21 24 28 28 23
Wind_Speed
3 2 3 5 6 6 8 8 9 13 19 6 7 15 15 16 17 16 22 26 25 24 23 23 22 21 16 17 15 17 19 26 33 35 32 33 34 32
1 4 4 5 9 8 9 10 10 15 16 15 18 18 17 20 20 21 21 25 23 25 24 25 21 18 16 13 17 15 18 23 33 34 32 31 29 29
1 3 6 7 9 10 11 11 12 14 22 21 20 19 20 20 18 17 18 20 19 22 20 23 24 19 16 13 13 17 13 8 30 29 32 32 33 32
1 4 6 7 11 11 11 13 14 15 19 26 24 23 22 20 20 19 19 18 18 18 20 24 24 23 15 14 15 16 22 33 37 35 33 35 37 37
2 4 6 8 10 10 13 14 13 15 18 21 26 21 19 18 20 20 19 18 13 20 21 24 24 23 19 14 17 19 21 24 38 41 36 34 34 34
2 4 6 8 10 11 13 12 14 16 17 19 23 23 18 20 17 18 19 14 16 16 17 23 21 17 16 15 16 21 23 30 34 34 34 33 33 35
3 4 5 9 12 12 12 15 15 17 18 20 23 22 22 18 15 12 16 16 16 13 10 8 8 9 9 11 12 19 31 42 43 38 35 34 34 37
2 4 5 8 9 13 14 15 16 19 21 19 22 24 26 19 14 13 14 14 8 6 6 11 13 6 8 11 15 14 24 34 39 38 40 38 39 38
2 4 5 5 9 11 13 15 16 18 18 20 23 24 24 19 12 10 11 12 6 8 5 10 13 13 13 6 19 24 34 39 41 42 40 42 40 38
3 3 4 7 8 12 14 15 15 16 16 16 19 20 17 11 9 9 11 3 3 9 7 7 10 16 16 19 19 32 39 42 44 46 45 41 40 36
3 4 4 6 8 12 12 14 15 16 15 17 16 15 13 5 5 5 4 4 3 7 11 5 7 16 20 23 19 27 39 45 46 45 43 41 38 35
4 5 5 7 11 11 10 11 13 15 15 15 14 15 15 11 6 5 7 5 4 2 3 5 2 5 8 11 14 11 29 38 41 40 41 39 35 25
2 5 7 8 9 10 10 9 10 13 10 9 10 11 12 12 11 10 10 4 4 3 2 4 4 6 7 6 13 13 21 24 26 27 29 29 30 28
1 3 4 6 8 10 10 12 12 9 9 9 10 12 12 12 11 11 12 10 8 6 6 6 5 3 9 11 8 8 16 18 20 19 19 24 26 24
1 2 6 7 9 9 12 12 9 9 9 11 11 10 8 8 9 7 10 12 14 13 10 8 13 13 11 9 12 10 17 12 15 18 17 16 17 17
6 7 6 9 9 9 10 10 9 9 10 9 9 8 7 9 11 8 8 10 12 13 14 12 12 11 17 15 16 19 16 8 12 15 18 17 15 13
8 8 8 8 9 10 10 9 9 10 10 10 11 9 9 9 10 8 9 9 9 9 12 14 18 18 15 19 20 14 18 20 15 17 19 18 13 11
8 7 7 8 8 8 8 8 9 10 9 9 10 9 8 9 11 10 11 9 8 9 11 12 17 20 19 18 13 20 16 16 15 14 15 20 16 12
11 8 7 8 7 7 6 7 7 7 7 9 7 7 7 8 10 11 10 10 9 9 9 8 8 12 16 14 7 10 19 16 16 14 12 11 15 13
10 9 8 7 7 7 7 7 8 7 8 8 7 7 7 7 9 11 11 11 10 8 9 8 8 8 15 11 8 11 18 18 16 14 13 14 13 16
9 9 9 7 5 5 6 8 7 6 8 8 7 6 8 8 9 10 12 12 11 8 8 9 10 14 13 15 14 12 10 13 14 15 16 14 11 6
8 9 8 8 7 6 6 5 5 7 8 7 6 7 9 10 10 9 10 11 11 11 11 9 9 10 10 15 14 14 13 15 19 19 13 7 8 8
8 7 7 7 6 9 11 9 8 7 6 6 6 8 8 9 10 10 9 9 10 12 12 12 13 13 14 15 16 17 21 18 16 18 12 14 9 15
Wind_Direction
72 19 315 296 297 304 305 291 295 303 308 293 326 323 300 299 290 305 304 300 301 307 311 316 308 288 277 274 283 225 228 207 189 198 191 196 191 178
105 324 321 317 318 312 307 307 294 286 289 307 295 291 297 290 290 295 294 297 296 296 300 301 303 288 280 277 285 248 241 250 220 178 174 185 178 172
55 328 314 322 314 310 303 292 281 281 285 294 296 296 296 295 295 294 292 292 290 288 292 303 299 283 269 275 272 275 265 155 161 171 171 171 175 172
286 313 323 324 309 299 290 285 279 280 286 296 301 303 302 297 292 286 292 284 280 281 291 293 293 280 258 266 263 248 255 210 179 171 177 178 178 173
281 336 318 301 294 291 286 285 297 297 296 296 297 298 295 298 295 291 287 285 284 289 286 285 280 261 265 264 267 268 227 188 171 170 169 166 163 160
341 306 297 287 286 294 295 298 298 294 299 298 296 300 302 299 288 288 298 299 297 297 291 278 267 244 246 254 263 263 222 177 159 154 151 155 156 151
304 303 300 296 295 295 297 299 301 306 305 302 300 304 301 295 290 295 289 298 298 292 295 339 332 258 246 254 254 254 198 168 150 147 145 146 141 136
314 308 312 309 303 297 305 304 297 297 298 299 298 292 288 287 285 278 285 296 307 11 342 3 356 330 267 235 213 155 130 134 132 140 138 132 126 126
309 323 325 310 307 314 315 315 302 302 292 291 289 286 287 283 277 270 276 279 284 337 10 18 355 15 358 260 203 189 142 134 131 125 123 122 120 119
303 322 321 308 308 318 323 316 320 318 318 311 298 300 302 282 245 253 279 167 68 32 24 45 355 38 29 36 143 143 134 130 122 118 114 112 113 115
308 304 291 320 321 326 330 329 328 329 324 320 322 347 3 345 238 232 199 164 36 23 23 80 12 66 49 43 55 110 117 112 110 111 113 112 112 110
333 308 318 322 335 347 348 339 333 327 324 338 351 6 13 13 341 267 183 163 112 76 26 89 17 4 55 15 38 75 90 101 108 114 115 115 115 114
343 336 331 340 7 6 9 352 338 320 329 355 7 6 21 33 30 40 54 110 123 76 137 87 76 48 77 98 41 48 98 99 100 101 107 115 123 127
360 337 345 23 26 19 22 13 2 355 7 24 30 26 18 17 25 43 54 57 58 111 104 97 110 97 130 113 100 76 84 96 107 106 108 111 112 114
182 71 59 53 36 29 29 22 5 23 36 38 32 25 36 32 23 32 54 67 60 57 72 88 108 118 130 126 132 122 111 79 97 107 105 106 115 118
86 74 57 58 46 37 32 22 13 30 35 35 40 25 32 47 57 32 55 58 70 63 56 74 89 104 103 109 119 115 116 121 113 109 107 100 102 102
92 73 61 52 39 27 25 24 24 26 40 35 45 41 45 55 58 48 54 62 87 89 79 75 76 78 89 115 110 102 111 113 110 114 114 113 105 110
85 77 66 59 47 31 26 32 29 30 30 40 39 39 45 57 68 64 68 66 81 94 98 104 107 102 90 65 79 116 112 118 119 117 118 126 122 123
97 92 76 63 53 41 37 37 39 34 33 49 50 55 61 66 75 75 76 80 78 83 88 99 111 116 119 110 104 117 127 129 128 121 111 108 127 135
99 93 81 70 58 43 31 40 42 34 36 50 47 38 54 83 88 85 85 86 93 94 94 87 96 104 123 120 118 131 138 133 137 133 120 102 100 119
90 87 84 72 67 59 50 39 40 43 43 49 48 57 49 73 81 86 90 94 93 90 88 86 101 105 105 105 111 127 136 137 137 141 132 127 131 121
85 82 74 75 71 75 74 57 54 55 49 51 61 70 73 84 80 77 82 93 90 92 92 91 96 95 103 112 104 105 116 115 104 104 99 107 148 156
85 87 77 78 65 58 59 71 74 66 65 70 73 70 76 85 92 86 79 80 93 102 102 93 87 90 92 101 106 107 105 101 101 89 72 117 108 118